Other Public Products
Issued by NWS Grand Forks, ND

Home | Current Version | Previous Version | Graphics & Text | Print | Product List | Glossary On
Versions: 1 2 3 4 5 6 7 8 9 10 11 12 13 14 15 16 17 18 19 20 21 22 23 24 25 26 27 28 29 30 31 32 33 34 35 36 37 38 39 40 41 42 43 44 45 46 47 48 49 50
000
FPUS83 KFGF 191210
OPUFGF
PRAIRIE TO PINES WEATHER ROUNDUP
NATIONAL WEATHER SERVICE EASTERN NORTH DAKOTA/GRAND FORKS ND
700 AM CDT FRI SEP 19 2014

 **SATELLITE DATA USED TO AUGMENT SKY COVER AT AUTOMATED STATIONS**
 *****  WEATHER ACROSS EASTERN NORTH DAKOTA  *****

CITY           SKY/WX    TMP DP  RH WIND       PRES   REMARKS
GRAND FORKS    CLOUDY    64  58  80 S15       29.56F
6HR MIN TEMP:  63; 6HR MAX TEMP:  68; 6HR PCP: TRACE;

GRAND FORKS AF CLOUDY    65  62  92 S18       29.54F
GRAND CITY NWS   N/A     63 N/A N/A S14         N/A
BUXTON         NOT AVBL
DEVILS LAKE    CLOUDY    66  57  72 SW16G22   29.52S
6HR MIN TEMP:  66; 6HR MAX TEMP:  70;

FARGO          LGT RAIN  63  56  78 S16G28    29.64F
6HR MIN TEMP:  63; 6HR MAX TEMP:  66; 6HR PCP: TRACE;

WAHPETON ARPT  CLOUDY    61  52  72 S15       29.69F
$$

 *****  WEATHER ACROSS CENTRAL AND WESTERN NORTH DAKOTA  *****

CITY           SKY/WX    TMP DP  RH WIND       PRES   REMARKS
JAMESTOWN      CLOUDY    63  61  93 S9        29.61F
6HR MIN TEMP:  63; 6HR MAX TEMP:  65; 6HR PCP:  0.02;

BISMARCK       LGT RAIN  67  60  78 SW14G24   29.63R
6HR MIN TEMP:  64; 6HR MAX TEMP:  69; 6HR PCP:  0.02;

MINOT          CLOUDY    65  55  70 S9        29.52S
6HR MIN TEMP:  64; 6HR MAX TEMP:  72;

MINOT AFB      CLOUDY    63  55  77 W7        29.50S
GARRISON         N/A     64  58  80 W3        29.57S
6HR MIN TEMP:  60; 6HR MAX TEMP:  68;

WILLISTON      CLOUDY    63  51  65 W13       29.59R
6HR MIN TEMP:  61; 6HR MAX TEMP:  67;

DICKINSON      CLOUDY    62  54  74 W9        29.65R
6HR MIN TEMP:  60; 6HR MAX TEMP:  71; 6HR PCP: TRACE;

HETTINGER      CLOUDY    59  55  87 W7        29.69S
6HR MIN TEMP:  58; 6HR MAX TEMP:  70; 6HR PCP: TRACE;

$$

 *****  OTHER OBSERVATIONS NORTHEAST NORTH DAKOTA  *****

CITY           SKY/WX    TMP DP  RH WIND       PRES   REMARKS
WALHALLA         N/A     66  63  88 SW14      29.48F
LANGDON        FAIR      63  59  88 SW14      29.51F
CAVALIER       FAIR      66  59  77 S10       29.50F
GRAFTON        LGT RAIN  63  61  94 S16       29.53F
CANDO          FAIR      64  59  82 SW9       29.52S
FORT TOTTEN    NOT AVBL
ROLLA          PTSUNNY   63  63 100 SW9       29.51S
RUGBY          FAIR      64  61  88 SW13      29.52S
 ***** THE ABOVE OBSERVATIONS ARE NON NWS ARE NOT QUALITY
        CONTROLLED AND MAY MIS-REPORT RAIN FOR SNOW...
$$

 *****  OTHER OBSERVATIONS SOUTHEAST NORTH DAKOTA *****

CITY           SKY/WX    TMP DP  RH WIND       PRES   REMARKS
COOPERSTOWN    NOT AVBL
VALLEY CITY    LGT RAIN  63  63 100 SW15      29.64R
OAKES            N/A     61  61 100 SW18G25   29.69R
GWINNER        SUNNY     64  64 100 S14       29.64S
BUFFALO        NOT AVBL
WYNDMERE         N/A     63  59  88 SE12        N/A
 ***** THE ABOVE OBSERVATIONS ARE NON NWS ARE NOT QUALITY
       CONTROLLED AND MAY MIS-REPORT RAIN FOR SNOW...
$$

  *****  WEATHER ACROSS NORTHERN MINNESOTA  *****

CITY           SKY/WX    TMP DP  RH WIND       PRES   REMARKS
FLAG ISLAND    LGT RAIN  61  57  88 S15G22    29.55F
WARROAD        CLOUDY    61  57  88 S9        29.59F
ROSEAU         CLOUDY    61  55  82 S12       29.59F
HALLOCK        LGT RAIN  63  59  88 S17       29.53F
THF RVR FALLS  CLOUDY    64  57  77 S21G26    29.61S
6HR MIN TEMP:  64; 6HR MAX TEMP:  66;

HALSTAD          N/A     63  55  76 S17         N/A
FOSSTON        CLOUDY    61  54  77 S18G29    29.66F
BAUDETTE       LGT RAIN  59  56  89 S9        29.63S
6HR MIN TEMP:  58; 6HR MAX TEMP:  62; 6HR PCP:  0.03;

WASKISH        CLOUDY    61  55  82 S10       29.67F
CROOKSTON      LGT RAIN  63  57  82 S21G26    29.62S
$$
  *****  WEATHER ACROSS CENTRAL AND WEST MINNESOTA  *****

CITY           SKY/WX    TMP DP  RH WIND       PRES   REMARKS
BEMIDJI        CLOUDY    60  52  74 S13G23    29.70F
PARK RAPIDS    CLOUDY    60  53  77 S13G23    29.77F
6HR MIN TEMP:  58; 6HR MAX TEMP:  61;

WADENA         CLOUDY    61  54  77 S13G18    29.78F
DETROIT LAKES  CLOUDY    61  54  77 S18G24    29.73F
MOORHEAD       CLOUDY    63  59  88 S14G24    29.66F
FERGUS FALLS   CLOUDY    61  52  72 S16G22    29.73F
ELBOW LAKE     FAIR      60  55  83 S17       29.75F
6HR MIN TEMP:  59; 6HR MAX TEMP:  61;

MORRIS MN      CLOUDY    63  55  77 S17G23    29.76F
STAPLES        CLOUDY    59  54  82 S13       29.80F
WHEATON        CLOUDY    61  55  82 SE12      29.73F
$$
  *****  WEATHER ELSEWHERE ACROSS MINNESOTA  *****

CITY           SKY/WX    TMP DP  RH WIND       PRES   REMARKS
DULUTH         CLOUDY    55  51  86 S12       29.88F
6HR MIN TEMP:  52; 6HR MAX TEMP:  55;

INTRNTL FALLS  CLOUDY    60  52  74 S13G21    29.69S
6HR MIN TEMP:  54; 6HR MAX TEMP:  60; 6HR PCP: TRACE;

ELY            CLOUDY    55  52  88 S17G23    29.79F
CLOQUET        NOT AVBL
BRAINERD       CLOUDY    58  52  80 S10       29.83F
6HR MIN TEMP:  57; 6HR MAX TEMP:  58;

HIBBING        CLOUDY    58  52  80 S9G21     29.80F
6HR MIN TEMP:  53; 6HR MAX TEMP:  58;

ALEXANDRIA     CLOUDY    60  55  83 S14       29.82F
6HR MIN TEMP:  60; 6HR MAX TEMP:  62;

SAINT CLOUD    CLOUDY    62  54  74 S12       29.87F
6HR MIN TEMP:  61; 6HR MAX TEMP:  63;

MINNEAPOLIS    CLOUDY    57  51  80 SE8       29.93F
6HR MIN TEMP:  57; 6HR MAX TEMP:  60;

$$

  *****  WEATHER ACROSS SOUTH DAKOTA  *****

CITY           SKY/WX    TMP DP  RH WIND       PRES   REMARKS
SIOUX FALLS    DRIZZLE   63  60  90 S16       29.83F FOG
6HR MIN TEMP:  61; 6HR MAX TEMP:  63; 6HR PCP: TRACE;

BROOKINGS      NOT AVBL
WATERTOWN      CLOUDY    59  58  96 S18       29.74F FOG
6HR MIN TEMP:  59; 6HR MAX TEMP:  62;

HURON          CLOUDY    62  60  93 S14G22    29.71F
6HR MIN TEMP:  61; 6HR MAX TEMP:  67;

SISSETON         N/A     63  59  87 S16G25    29.67F
ABERDEEN       CLOUDY    62  59  90 S15       29.67S
6HR MIN TEMP:  62; 6HR MAX TEMP:  66; 6HR PCP:  0.01;

MITCHELL       CLOUDY    64  62  93 SE13      29.75F
PIERRE         CLOUDY    61  59  93 CALM      29.66F
6HR MIN TEMP:  61; 6HR MAX TEMP:  66;

MOBRIDGE       CLOUDY    62  62 100 W8        29.67S
RAPID CITY     MOCLDY    60  51  72 CALM      29.77S
6HR MIN TEMP:  60; 6HR MAX TEMP:  73;

$$

  *****  SOME WEATHER IN NEARBY STATES *****

CITY           SKY/WX    TMP DP  RH WIND       PRES   REMARKS
GLASGOW MT     CLEAR     55  47  74 NW6       29.66R
6HR MIN TEMP:  53; 6HR MAX TEMP:  67;

GREAT FALLS MT PTCLDY    57  43  59 SW14      29.82R
6HR MIN TEMP:  56; 6HR MAX TEMP:  63;

CHEYENNE WY    PTCLDY    59  38  45 E7        30.02R
6HR MIN TEMP:  54; 6HR MAX TEMP:  66;

SCOTTSBLUFF NE PTCLDY    60  51  72 W12       29.89R
6HR MIN TEMP:  55; 6HR MAX TEMP:  73;

OMAHA NE       CLOUDY    63  60  90 S16       29.94S FOG
6HR MIN TEMP:  61; 6HR MAX TEMP:  63;

DES MOINES IA  PTCLDY    56  53  90 S7        30.02R
6HR MIN TEMP:  56; 6HR MAX TEMP:  60;

DAVENPORT IA   CLEAR     50  47  89 SE7       30.11R FOG
6HR MIN TEMP:  50; 6HR MAX TEMP:  56;

CHICAGO IL     PTCLDY    54  49  83 S8        30.15F
6HR MIN TEMP:  53; 6HR MAX TEMP:  58;

EAU CLAIRE WI  CLEAR     54  51  90 S9        30.02R
6HR MIN TEMP:  53; 6HR MAX TEMP:  54;

LA CROSSE WI   CLEAR     56  51  84 SE10      30.04S
6HR MIN TEMP:  56; 6HR MAX TEMP:  59;

$$

  *****  SOME NATIONAL WEATHER *****

CITY           SKY/WX    TMP DP  RH WIND       PRES   REMARKS
LA GUARDIA NY  MOSUNNY   55  40  56 NE14      30.29R
6HR MIN TEMP:  55; 6HR MAX TEMP:  62;



USA.gov is the U.S. government's official web portal to all federal, state and local government web resources and services.